New Ulm, MN

4:52 AM CST on December 10, 2019 (GMT -0600)
New Ulm Municipal

Weather History for KULM - October, 2019

Change the Weather History Date:

Wednesday, October 30, 2019

  Actual Average Record
Temperature  
Mean Temperature 26 °F -  
Max Temperature 32 °F 53 °F 78 °F (1950)
Min Temperature 19 °F 34 °F 15 °F (1991)
Degree Days  
Heating Degree Days 40    
Moisture  
Dew Point 15 °F    
Average Humidity 69    
Maximum Humidity 86    
Minimum Humidity 48    
Precipitation  
Precipitation 0.00 in - - ()
Sea Level Pressure  
Sea Level Pressure 30.30 in    
Wind  
Wind Speed 6 mph ()    
Max Wind Speed 10 mph    
Max Gust Speed 17 mph    
Visibility 10.0 miles    
Events      
Averages and records for this station are not official NWS values.
T = Trace of Precipitation, MM = Missing Value Source: Averaged Metar Reports

Daily Weather History Graph

Daily Weather History Graph

Search for Another Location

Airport or City:

Astronomy

Oct. 30, 2019 Rise Set
Actual Time 7:52 AM CDT 6:10 PM CDT
Civil Twilight 7:22 AM CDT 6:40 PM CDT
Nautical Twilight 6:47 AM CDT 7:14 PM CDT
Astronomical Twilight 6:14 AM CDT 7:48 PM CDT
Moon 10:41 AM CDT (10/30) 8:13 PM CDT (10/30)
Length of Visible Light 11h 18m
Length of Day
10h 18m
Waxing Crescent, 9% of the Moon is Illuminated
Oct 30
Waxing Crescent
Nov 4
First Quarter
Nov 12
Full
Nov 19
Last Quarter
Nov 26
New

Hourly Weather History & Observations

Time (CDT) Temp. Windchill Dew Point Humidity Pressure Visibility Wind Dir Wind Speed Gust Speed Precip Events Conditions
12:55 AM 19.4 °F 10.4 °F 14.0 °F 80% 30.37 in 10.0 mi West 6.9 mph - N/A   Clear
1:55 AM 19.4 °F 10.4 °F 14.0 °F 80% 30.37 in 10.0 mi West 6.9 mph - N/A   Clear
2:55 AM 19.4 °F 9.5 °F 12.2 °F 74% 30.37 in 10.0 mi WNW 8.1 mph - N/A   Clear
3:55 AM 19.4 °F 8.6 °F 14.0 °F 80% 30.36 in 10.0 mi WNW 9.2 mph - N/A   Clear
4:55 AM 19.4 °F 9.5 °F 14.0 °F 80% 30.35 in 10.0 mi WNW 8.1 mph - N/A   Clear
5:55 AM 19.4 °F 9.5 °F 14.0 °F 80% 30.37 in 10.0 mi West 8.1 mph - N/A   Clear
6:55 AM 19.4 °F 14.3 °F 15.8 °F 86% 30.36 in 10.0 mi West 3.5 mph - N/A   Clear
7:55 AM 21.2 °F 13.6 °F 15.8 °F 80% 30.36 in 10.0 mi WNW 5.8 mph - N/A   Clear
8:55 AM 21.2 °F 16.4 °F 15.8 °F 80% 30.37 in 10.0 mi WSW 3.5 mph - N/A   Clear
9:55 AM 24.8 °F 17.9 °F 15.8 °F 69% 30.37 in 10.0 mi West 5.8 mph - N/A   Clear
10:55 AM 26.6 °F 20.0 °F 17.6 °F 69% 30.36 in 10.0 mi WNW 5.8 mph - N/A   Clear
11:55 AM 28.4 °F 22.2 °F 15.8 °F 59% 30.35 in 10.0 mi West 5.8 mph - N/A   Scattered Clouds
12:55 PM 30.2 °F 22.6 °F 14.0 °F 51% 30.33 in 10.0 mi West 8.1 mph - N/A   Scattered Clouds
1:55 PM 30.2 °F 25.4 °F 15.8 °F 55% 30.30 in 10.0 mi WNW 4.6 mph 9.2 mph N/A   Scattered Clouds
2:55 PM 30.2 °F 21.3 °F 15.8 °F 55% 30.27 in 10.0 mi NW 10.4 mph 17.3 mph N/A   Clear
3:55 PM 32.0 °F 24.2 °F 14.0 °F 48% 30.26 in 10.0 mi WNW 9.2 mph - N/A   Clear
4:55 PM 30.2 °F 23.4 °F 14.0 °F 51% 30.24 in 10.0 mi NNW 6.9 mph - N/A   Clear
5:55 PM 28.4 °F 20.4 °F 15.8 °F 59% 30.23 in 10.0 mi NNW 8.1 mph - N/A   Clear
6:55 PM 28.4 °F 20.4 °F 15.8 °F 59% 30.23 in 10.0 mi NNW 8.1 mph - N/A   Clear
7:55 PM 26.6 °F - 15.8 °F 64% 30.23 in 10.0 mi Calm Calm - N/A   Clear
8:55 PM 24.8 °F 19.1 °F 15.8 °F 69% 30.21 in 10.0 mi NNW 4.6 mph - N/A   Clear
9:55 PM 21.2 °F 14.9 °F 15.8 °F 80% 30.21 in 10.0 mi NNW 4.6 mph - N/A   Clear
10:55 PM 21.2 °F 16.4 °F 15.8 °F 80% 30.21 in 10.0 mi NNW 3.5 mph - N/A   Mostly Cloudy
11:55 PM 24.8 °F - 17.6 °F 74% 30.19 in 10.0 mi Calm Calm - N/A   Overcast